TimeMST,TemperatureF,Dew PointF,Humidity,Sea Level PressureIn,VisibilityMPH,Wind Direction,Wind SpeedMPH,Gust SpeedMPH,PrecipitationIn,Events,Conditions,WindDirDegrees,DateUTC
12:53 AM,9.0,5.0,84,30.51,10.0,Calm,Calm,-,N/A,,Clear,0,2013-01-04 07:53:00
1:53 AM,7.0,3.9,87,30.52,4.0,Calm,Calm,-,N/A,,Clear,0,2013-01-04 08:53:00
2:53 AM,7.0,3.9,87,30.54,10.0,Calm,Calm,-,N/A,,Overcast,0,2013-01-04 09:53:00
3:53 AM,7.0,3.0,84,30.53,10.0,Calm,Calm,-,N/A,,Overcast,0,2013-01-04 10:53:00
4:53 AM,7.0,3.9,87,30.54,8.0,Calm,Calm,-,N/A,,Partly Cloudy,0,2013-01-04 11:53:00
5:53 AM,6.1,3.0,87,30.54,7.0,Calm,Calm,-,N/A,,Clear,0,2013-01-04 12:53:00
6:53 AM,6.1,1.9,83,30.54,10.0,Calm,Calm,-,N/A,,Scattered Clouds,0,2013-01-04 13:53:00
7:53 AM,8.1,6.1,92,30.54,9.0,Calm,Calm,-,0.00,,Overcast,0,2013-01-04 14:53:00
8:53 AM,10.0,7.0,87,30.54,7.0,Calm,Calm,-,0.00,,Overcast,0,2013-01-04 15:53:00
9:53 AM,10.9,9.0,92,30.55,8.0,Calm,Calm,-,N/A,,Overcast,0,2013-01-04 16:53:00
10:53 AM,12.9,9.0,84,30.56,8.0,Calm,Calm,-,N/A,,Overcast,0,2013-01-04 17:53:00
11:53 AM,15.1,10.9,84,30.52,8.0,Calm,Calm,-,N/A,,Overcast,0,2013-01-04 18:53:00
12:53 PM,16.0,10.9,81,30.50,10.0,Calm,Calm,-,N/A,,Overcast,0,2013-01-04 19:53:00
1:53 PM,18.0,12.0,78,30.50,10.0,West,4.6,-,N/A,,Overcast,280,2013-01-04 20:53:00
2:53 PM,18.0,12.9,81,30.49,8.0,Calm,Calm,-,N/A,,Overcast,0,2013-01-04 21:53:00
3:53 PM,19.0,12.9,77,30.48,9.0,Calm,Calm,-,N/A,,Overcast,0,2013-01-04 22:53:00
4:53 PM,19.9,14.0,78,30.48,9.0,Calm,Calm,-,N/A,,Overcast,0,2013-01-04 23:53:00
5:53 PM,19.9,14.0,78,30.49,10.0,Calm,Calm,-,N/A,,Overcast,0,2013-01-05 00:53:00
6:53 PM,21.0,14.0,74,30.49,9.0,Calm,Calm,-,N/A,,Overcast,0,2013-01-05 01:53:00
7:53 PM,21.0,14.0,74,30.48,10.0,Calm,Calm,-,N/A,,Overcast,0,2013-01-05 02:53:00
8:50 PM,21.2,15.8,80,30.30,7.0,Calm,Calm,-,0.00,,Overcast,0,2013-01-05 03:50:00
8:53 PM,21.0,16.0,81,30.47,6.0,Calm,Calm,-,0.00,Snow,Light Snow,0,2013-01-05 03:53:00
9:00 PM,21.2,15.8,80,30.30,7.0,Calm,Calm,-,0.00,Snow,Light Snow,0,2013-01-05 04:00:00
9:15 PM,17.6,14.0,86,30.30,10.0,West,5.8,-,N/A,,Mostly Cloudy,260,2013-01-05 04:15:00
9:53 PM,19.9,14.0,78,30.47,10.0,Calm,Calm,-,0.00,,Mostly Cloudy,0,2013-01-05 04:53:00
10:53 PM,19.9,16.0,85,30.47,10.0,Calm,Calm,-,N/A,,Overcast,0,2013-01-05 05:53:00
11:53 PM,16.0,12.9,88,30.48,7.0,WNW,3.5,-,N/A,,Clear,290,2013-01-05 06:53:00